Wind_Speed
16 16 18 20 20 20 21 21 20 19 19 17 17 17 18 18 19 20 23 25 27 28
13 14 14 14 16 17 18 19 20 20 18 19 19 18 17 18 18 23 23 24 27 29
13 14 14 14 13 14 16 17 17 18 19 19 18 18 18 16 17 20 23 23 23 26
13 14 14 15 15 15 15 15 16 17 17 18 18 17 14 16 17 17 17 19 20 21
16 18 19 20 19 18 17 16 16 17 18 19 20 20 17 15 14 14 12 12 15 16
19 21 23 23 23 22 21 20 21 24 27 29 26 23 19 17 17 14 13 11 10 12
19 20 21 21 21 22 23 24 26 29 31 31 31 28 25 23 21 19 18 15 12 13
18 17 19 20 21 21 20 24 25 26 27 30 32 32 32 30 29 28 25 23 20 19
15 15 18 18 20 20 21 23 25 27 27 29 31 30 30 32 34 35 35 34 30 27
15 17 18 18 18 19 21 23 25 27 27 29 29 29 29 30 32 34 36 38 40 39
15 16 16 16 18 20 21 24 25 25 28 29 31 30 31 30 32 33 35 37 38 40
16 16 16 17 19 21 22 24 26 27 26 29 30 31 32 32 33 34 35 35 36 36
15 16 17 17 19 23 23 25 25 27 29 29 32 32 33 34 34 35 35 35 35 35
15 17 18 19 21 22 23 24 26 28 29 31 33 34 33 33 35 36 35 36 36 34
Wind_Direction
335 339 336 333 334 334 332 331 328 323 314 305 295 290 281 277 275 273 268 263 262 260
343 347 350 340 341 340 340 339 338 337 332 321 313 306 298 291 282 274 272 267 262 259
4 6 7 4 2 359 356 353 350 349 346 340 331 324 316 305 294 288 274 274 272 264
15 18 18 19 17 17 14 11 8 5 3 358 353 345 339 328 314 303 289 272 276 267
39 40 39 34 30 27 28 26 26 28 25 18 16 12 4 355 345 336 320 288 278 267
46 47 46 42 38 38 39 41 44 45 40 32 28 26 24 18 14 7 360 340 318 286
45 45 46 45 42 40 41 45 47 48 49 42 36 32 32 34 32 27 21 11 359 341
43 42 45 43 42 41 43 46 46 48 48 48 42 39 36 38 38 38 36 31 24 17
40 38 42 42 41 38 41 46 46 45 44 46 45 40 40 40 41 41 40 38 34 27
46 44 41 41 41 39 40 43 47 45 43 43 43 43 38 39 40 40 37 38 35 33
46 46 45 42 43 44 41 41 41 41 41 38 38 38 37 37 38 39 37 34 34 32
49 48 48 46 46 47 45 44 42 40 41 39 36 33 31 30 33 34 35 34 33 31
52 49 47 48 49 48 47 47 46 44 43 43 40 35 30 29 30 30 30 30 30 29
54 51 48 49 52 52 52 52 50 48 46 44 42 38 36 32 28 27 26 26 25 25
Height
1473 1468 1464 1461 1457 1455 1452 1448 1445 1441 1438 1437 1435 1432 1430 1428 1427 1425 1425 1425 1425 1424
1469 1467 1461 1458 1457 1454 1451 1445 1441 1437 1435 1432 1429 1427 1425 1423 1422 1420 1419 1418 1417 1417
1468 1464 1460 1458 1455 1452 1447 1443 1439 1435 1432 1430 1427 1424 1421 1419 1416 1414 1412 1410 1408 1408
1469 1462 1460 1456 1454 1450 1446 1443 1438 1434 1431 1428 1423 1419 1417 1414 1410 1408 1404 1403 1401 1401
1470 1465 1461 1458 1456 1451 1448 1445 1440 1434 1430 1426 1422 1417 1412 1412 1408 1403 1398 1396 1396 1395
1472 1467 1462 1460 1459 1455 1452 1448 1443 1436 1430 1426 1422 1418 1414 1410 1404 1402 1397 1394 1391 1388
1473 1469 1464 1463 1462 1458 1455 1450 1444 1437 1432 1431 1426 1422 1415 1409 1406 1401 1397 1393 1389 1386
1474 1473 1468 1465 1462 1460 1457 1451 1446 1442 1438 1434 1430 1425 1420 1413 1407 1401 1398 1393 1389 1384
1477 1474 1469 1468 1464 1462 1458 1453 1448 1445 1442 1437 1433 1430 1424 1419 1412 1405 1399 1392 1389 1383
1478 1474 1471 1469 1467 1465 1461 1456 1451 1448 1444 1440 1437 1433 1428 1422 1415 1408 1402 1395 1387 1380
1480 1478 1476 1473 1469 1466 1463 1457 1454 1450 1445 1442 1438 1433 1430 1422 1416 1409 1402 1395 1391 1385
1482 1481 1478 1475 1472 1468 1463 1459 1456 1453 1447 1444 1438 1434 1429 1423 1417 1411 1406 1402 1397 1392
1485 1483 1481 1477 1472 1469 1466 1462 1460 1456 1450 1446 1442 1437 1432 1425 1421 1415 1410 1406 1402 1395
1488 1485 1482 1478 1475 1472 1469 1466 1462 1458 1454 1449 1444 1439 1434 1429 1424 1418 1414 1408 1402 1399